Weather History for KMEM - January, 2014

Change the Weather History Date:

Thursday, January 30, 2014

  Actual Average Record
Temperature  
Mean Temperature 32 °F 42 °F  
Max Temperature 46 °F 51 °F 77 °F (2002)
Min Temperature 18 °F 33 °F 2 °F (1966)
Degree Days  
Heating Degree Days 33 23  
Month to date heating degree days 876 715  
Since 1 July heating degree days 2146 1879  
Cooling Degree Days 0 0  
Month to date cooling degree days 0 0  
Year to date cooling degree days 0 0  
Moisture  
Dew Point 4 °F    
Average Humidity 34    
Maximum Humidity 51    
Minimum Humidity 16    
Precipitation  
Precipitation 0.00 in 0.13 in 2.44 in (1950)
Month to date precipitation 3.16 3.84  
Year to date precipitation 3.16 3.84  
Snow  
Snow 0.00 in 0.00 in 6.00 in (1882)
Month to date snowfall T 1.8  
Since 1 July snowfall T 2.0  
Snow Depth 0.00 in    
Sea Level Pressure  
Sea Level Pressure 30.15 in    
Wind  
Wind Speed 11 mph (South)    
Max Wind Speed 23 mph    
Max Gust Speed 30 mph    
Visibility 10 miles    
Events      
T = Trace of Precipitation, MM = Missing Value Source: NWS Daily Summary

Daily Weather History Graph

Daily Weather History Graph

Search for Another Location

Airport or City:

Trip Planner

Search our weather history database for the weather conditions in past years. The results will help you decide how hot, cold, wet, or windy it might be!

Date:

Astronomy

Jan. 30, 2014 Rise Set
Actual Time 7:00 AM CST 5:26 PM CST
Civil Twilight 6:33 AM CST 5:53 PM CST
Nautical Twilight 6:03 AM CST 6:23 PM CST
Astronomical Twilight 5:33 AM CST 6:53 PM CST
Moon 6:27 AM CST 5:36 PM CST
Length of Visible Light 11h 19m
Length of Day
10h 26m
Waning Crescent, 0% of the Moon is Illuminated
Jan 30
Waning Crescent
Jan 30
New
Feb 6
First Quarter
Feb 14
Full
Feb 22
Last Quarter

Hourly Weather History & Observations

Time (CST) Temp. Windchill Dew Point Humidity Pressure Visibility Wind Dir Wind Speed Gust Speed Precip Events Conditions
12:54 AM 21.0 °F 11.4 °F 5.0 °F 50% 30.30 in 10.0 mi South 8.1 mph - N/A   Clear
1:54 AM 21.0 °F 12.4 °F 5.0 °F 50% 30.28 in 10.0 mi South 6.9 mph - N/A   Clear
2:54 AM 19.9 °F 11.1 °F 5.0 °F 52% 30.28 in 10.0 mi South 6.9 mph - N/A   Clear
3:54 AM 23.0 °F 13.1 °F 5.0 °F 46% 30.26 in 10.0 mi SSW 9.2 mph - N/A   Clear
4:54 AM 21.9 °F 11.0 °F 5.0 °F 48% 30.25 in 10.0 mi South 10.4 mph - N/A   Clear
5:54 AM 19.9 °F 10.1 °F 5.0 °F 52% 30.25 in 10.0 mi SSE 8.1 mph - N/A   Clear
6:54 AM 21.0 °F 10.6 °F 5.0 °F 50% 30.23 in 10.0 mi South 9.2 mph - N/A   Mostly Cloudy
7:54 AM 24.1 °F 12.5 °F 6.1 °F 46% 30.26 in 10.0 mi South 12.7 mph - N/A   Mostly Cloudy
8:54 AM 27.0 °F 15.6 °F 5.0 °F 39% 30.27 in 10.0 mi South 13.8 mph - N/A   Mostly Cloudy
9:54 AM 30.9 °F 20.2 °F 6.1 °F 35% 30.22 in 10.0 mi South 15.0 mph - N/A   Mostly Cloudy
10:54 AM 34.0 °F 23.8 °F 5.0 °F 30% 30.23 in 10.0 mi South 16.1 mph - N/A   Mostly Cloudy
11:54 AM 37.9 °F 28.2 °F 3.9 °F 24% 30.18 in 10.0 mi SSW 18.4 mph 24.2 mph N/A   Scattered Clouds
12:54 PM 42.1 °F 34.5 °F 3.0 °F 20% 30.11 in 10.0 mi South 15.0 mph 23.0 mph N/A   Mostly Cloudy
1:54 PM 44.1 °F 35.7 °F -0.0 °F 16% 30.07 in 10.0 mi South 20.7 mph 25.3 mph N/A   Mostly Cloudy
2:54 PM 45.0 °F 37.9 °F -0.9 °F 15% 30.04 in 10.0 mi SSW 16.1 mph 25.3 mph N/A   Mostly Cloudy
3:54 PM 45.0 °F 37.1 °F -0.0 °F 15% 30.04 in 10.0 mi South 19.6 mph - N/A   Mostly Cloudy
4:54 PM 43.0 °F 36.8 °F -0.0 °F 17% 30.03 in 10.0 mi South 11.5 mph - N/A   Mostly Cloudy
5:54 PM 39.9 °F 33.9 °F 1.0 °F 20% 30.03 in 10.0 mi South 9.2 mph - N/A   Mostly Cloudy
6:54 PM 37.9 °F 32.1 °F 3.0 °F 23% 30.04 in 10.0 mi South 8.1 mph - N/A   Mostly Cloudy
7:54 PM 37.9 °F - 1.9 °F 22% 30.06 in 10.0 mi Calm Calm - N/A   Scattered Clouds
8:54 PM 37.9 °F 35.5 °F 3.0 °F 23% 30.08 in 10.0 mi South 3.5 mph - N/A   Scattered Clouds
9:54 PM 37.0 °F 33.3 °F 6.1 °F 28% 30.08 in 10.0 mi South 4.6 mph - N/A   Mostly Cloudy
10:54 PM 41.0 °F 33.5 °F 5.0 °F 23% 30.07 in 10.0 mi South 13.8 mph - N/A   Overcast
11:54 PM 41.0 °F 33.5 °F 5.0 °F 23% 30.06 in 10.0 mi South 13.8 mph - N/A   Overcast